Date String (YYYY-MM-DD hh:mm:ss) UTC,Instrument flags,Ambient pressure (hPa),Sample flow (lpm),Bypass flow (lpm),Sample temperature (°C),Ambient temperature (°C),ASC tube jacket temperature (°C),LED temperature (°C),Box temperature (°C),Sample RH (%),Span deviation,Mass concentration (μg/m³),Mass concentration (μg/m³),Mass concentration (μg/m³)
DateTimeUTC,F1_M11,P_M11,Q1_M11,Q2_M11,T1_M11,T2_M11,T3_M11,T4_M11,T5_M11,U1_M11,ZSPAN_M11,X0_M11,X2_M11,X1_M11
2021-10-09 00:00:00,,0824.2,5.01,0.00,29.8,28.9,00.0,38.7,31.6,18.1,0000.0,0005.55,0002.79,0002.02
2021-10-09 00:01:00,,0824.3,4.99,0.00,29.8,28.8,00.0,38.7,31.6,18.1,0000.0,0005.69,0002.71,0002.00
2021-10-09 00:02:00,,0824.3,5.00,0.00,29.7,27.2,00.0,38.7,31.2,18.2,0000.0,0006.04,0002.71,0001.99
2021-10-09 00:03:00,,0824.4,5.01,0.00,29.6,26.2,00.0,38.7,30.9,18.4,0000.0,0005.99,0002.68,0001.97
2021-10-09 00:04:00,,0824.4,4.99,0.00,29.5,26.4,00.0,38.7,31.0,18.5,0000.0,0006.12,0002.70,0001.97
2021-10-09 00:05:00,,0824.4,4.99,0.00,29.4,26.8,00.0,38.7,31.0,18.6,0000.0,0006.28,0002.69,0001.95
2021-10-09 00:06:00,,0824.5,5.00,0.00,29.4,27.2,00.0,38.6,31.1,18.5,0000.0,0005.97,0002.67,0001.95
2021-10-09 00:07:00,,0824.5,5.01,0.00,29.4,27.5,00.0,38.6,31.1,18.4,0000.0,0005.26,0002.61,0001.95
2021-10-09 00:08:00,,0824.4,5.00,0.00,29.5,27.8,00.0,38.6,31.2,18.4,0000.0,0005.25,0002.59,0001.95
2021-10-09 00:09:00,,0824.5,4.99,0.00,29.5,28.0,00.0,38.6,31.2,18.3,0000.0,0004.98,0002.58,0001.95
2021-10-09 00:10:00,,0824.8,5.00,0.00,29.5,28.1,00.0,38.6,31.3,18.3,0000.0,0005.52,0002.59,0001.95
2021-10-09 00:11:00,,0824.6,5.00,0.00,29.5,28.3,00.0,38.6,31.3,18.3,0000.0,0005.76,0002.57,0001.95
2021-10-09 00:12:00,,0824.7,5.00,0.00,29.6,28.4,00.0,38.6,31.3,18.3,0000.0,0005.56,0002.60,0001.96
2021-10-09 00:13:00,,0824.8,5.00,0.00,29.6,28.4,00.0,38.6,31.4,18.4,0000.0,0005.17,0002.57,0001.95
2021-10-09 00:14:00,,0824.8,5.00,0.00,29.6,28.5,00.0,38.6,31.4,18.5,0000.0,0005.09,0002.55,0001.95
2021-10-09 00:15:00,,0824.8,4.99,0.00,29.7,28.6,00.0,38.6,31.4,18.2,0000.0,0004.93,0002.50,0001.95
2021-10-09 00:16:00,,0824.7,5.01,0.00,29.7,28.6,00.0,38.6,31.5,18.1,0000.0,0004.67,0002.44,0001.94
2021-10-09 00:17:00,,0824.6,5.00,0.00,29.7,28.7,00.0,38.7,31.5,18.2,0000.0,0004.55,0002.46,0001.94
2021-10-09 00:18:00,,0824.6,5.01,0.00,29.7,28.7,00.0,38.7,31.5,18.3,0000.0,0004.58,0002.47,0001.93
2021-10-09 00:19:00,,0824.7,4.99,0.00,29.8,28.8,00.0,38.7,31.6,18.2,0000.0,0004.76,0002.53,0001.93
2021-10-09 00:20:00,,0824.7,4.99,0.00,29.8,28.8,00.0,38.7,31.6,18.3,0000.0,0004.90,0002.54,0001.91
2021-10-09 00:21:00,,0824.6,5.01,0.00,29.8,28.5,00.0,38.7,31.5,18.4,0000.0,0004.32,0002.52,0001.91
2021-10-09 00:22:00,,0824.7,5.00,0.00,29.7,26.6,00.0,38.7,31.0,18.7,0000.0,0004.20,0002.48,0001.90
2021-10-09 00:23:00,,0824.5,5.01,0.00,29.5,26.1,00.0,38.7,30.9,18.7,0000.0,0006.24,0002.44,0001.88
2021-10-09 00:24:00,,0824.6,5.01,0.00,29.5,26.4,00.0,38.7,30.9,18.9,0000.0,0006.37,0002.47,0001.87
2021-10-09 00:25:00,,0824.6,4.99,0.00,29.4,26.8,00.0,38.6,31.0,19.3,0000.0,0006.49,0002.47,0001.85
2021-10-09 00:26:00,,0824.7,5.00,0.00,29.4,27.2,00.0,38.6,31.0,19.3,0000.0,0007.26,0002.49,0001.84
2021-10-09 00:27:00,,0824.7,5.01,0.00,29.4,27.5,00.0,38.6,31.1,19.2,0000.0,0007.50,0002.51,0001.84
2021-10-09 00:28:00,,0824.7,5.01,0.00,29.4,27.7,00.0,38.6,31.1,19.2,0000.0,0007.48,0002.47,0001.83
2021-10-09 00:29:00,,0824.5,4.99,0.00,29.4,27.9,00.0,38.6,31.2,19.1,0000.0,0007.45,0002.42,0001.82
2021-10-09 00:30:00,,0824.6,5.01,0.00,29.5,28.1,00.0,38.6,31.2,19.0,0000.0,0007.43,0002.35,0001.81
2021-10-09 00:31:00,,0824.5,5.01,0.00,29.5,28.2,00.0,38.6,31.3,18.8,0000.0,0007.84,0002.33,0001.80
2021-10-09 00:32:00,,0824.5,4.99,0.00,29.5,28.4,00.0,38.6,31.3,18.8,0000.0,0008.40,0002.37,0001.79
2021-10-09 00:33:00,,0824.4,5.01,0.00,29.6,28.4,00.0,38.6,31.4,18.8,0000.0,0008.17,0002.37,0001.78
2021-10-09 00:34:00,,0824.5,5.01,0.00,29.6,28.5,00.0,38.6,31.4,18.7,0000.0,0006.86,0002.36,0001.77
2021-10-09 00:35:00,,0824.5,5.00,0.00,29.6,28.6,00.0,38.6,31.4,18.9,0000.0,0006.75,0002.32,0001.76
2021-10-09 00:36:00,,0824.5,5.00,0.00,29.7,28.7,00.0,38.6,31.5,19.1,0000.0,0006.81,0002.30,0001.76
2021-10-09 00:37:00,,0824.5,5.00,0.00,29.7,28.7,00.0,38.6,31.5,19.1,0000.0,0006.32,0002.27,0001.75
2021-10-09 00:38:00,,0824.6,4.99,0.00,29.7,28.8,00.0,38.7,31.5,19.1,0000.0,0005.85,0002.22,0001.73
2021-10-09 00:39:00,,0824.7,5.01,0.00,29.8,28.8,00.0,38.7,31.5,19.0,0000.0,0006.21,0002.19,0001.72
2021-10-09 00:40:00,,0824.7,5.00,0.00,29.8,28.9,00.0,38.7,31.6,19.1,0000.0,0006.42,0002.19,0001.72
2021-10-09 00:41:00,,0824.6,4.99,0.00,29.8,28.9,00.0,38.7,31.6,19.0,0000.0,0006.29,0002.14,0001.71
2021-10-09 00:42:00,,0824.6,5.01,0.00,29.8,28.3,00.0,38.7,31.5,18.9,0000.0,0005.77,0002.14,0001.70
2021-10-09 00:43:00,,0824.8,5.00,0.00,29.7,26.4,00.0,38.7,31.0,19.2,0000.0,0004.54,0002.08,0001.69
2021-10-09 00:44:00,,0824.5,4.99,0.00,29.6,26.2,00.0,38.7,30.9,19.4,0000.0,0004.49,0002.07,0001.67
2021-10-09 00:45:00,,0824.5,5.01,0.00,29.5,26.5,00.0,38.7,30.9,19.5,0000.0,0004.39,0002.06,0001.66
2021-10-09 00:46:00,,0824.4,5.00,0.00,29.4,26.9,00.0,38.6,31.0,19.6,0000.0,0004.40,0002.07,0001.65
2021-10-09 00:47:00,,0824.3,5.01,0.00,29.4,27.3,00.0,38.6,31.1,19.7,0000.0,0004.38,0002.06,0001.64
2021-10-09 00:48:00,,0824.2,4.99,0.00,29.4,27.6,00.0,38.6,31.1,19.6,0000.0,0004.19,0002.10,0001.64
2021-10-09 00:49:00,,0824.1,5.00,0.00,29.4,27.9,00.0,38.6,31.2,19.9,0000.0,0004.38,0002.14,0001.65
2021-10-09 00:50:00,,0824.1,4.99,0.00,29.5,28.1,00.0,38.6,31.2,20.0,0000.0,0004.33,0002.17,0001.63
2021-10-09 00:51:00,,0824.1,5.00,0.00,29.5,28.2,00.0,38.6,31.3,20.1,0000.0,0004.05,0002.18,0001.62
2021-10-09 00:52:00,,0824.1,5.00,0.00,29.5,28.3,00.0,38.6,31.3,19.9,0000.0,0004.25,0002.20,0001.62
2021-10-09 00:53:00,,0824.1,5.01,0.00,29.6,28.5,00.0,38.6,31.4,19.8,0000.0,0004.92,0002.22,0001.62
2021-10-09 00:54:00,,0824.1,5.00,0.00,29.6,28.5,00.0,38.6,31.4,19.8,0000.0,0004.85,0002.21,0001.62
2021-10-09 00:55:00,,0824.1,5.01,0.00,29.6,28.6,00.0,38.6,31.4,19.8,0000.0,0006.11,0002.20,0001.62
2021-10-09 00:56:00,,0824.1,4.99,0.00,29.7,28.7,00.0,38.6,31.4,19.8,0000.0,0006.98,0002.21,0001.62
2021-10-09 00:57:00,,0824.1,5.00,0.00,29.7,28.7,00.0,38.7,31.5,19.8,0000.0,0007.93,0002.22,0001.61
2021-10-09 00:58:00,,0824.0,5.01,0.00,29.7,28.8,00.0,38.7,31.5,19.7,0000.0,0007.95,0002.23,0001.62
2021-10-09 00:59:00,,0824.0,5.00,0.00,29.7,28.8,00.0,38.7,31.6,19.7,0000.0,0007.92,0002.22,0001.61
